Year,Month,Day,Hour,Minute,Value (Times are PST for barometer in hPa)
2021,10,24,00,00,995.82
2021,10,24,00,01,995.80
2021,10,24,00,02,995.80
2021,10,24,00,03,995.80
2021,10,24,00,04,995.80
2021,10,24,00,05,995.80
2021,10,24,00,06,995.80
2021,10,24,00,07,995.80
2021,10,24,00,08,995.80
2021,10,24,00,09,995.80
2021,10,24,00,10,995.80
2021,10,24,00,11,995.80
2021,10,24,00,12,995.80
2021,10,24,00,13,995.80
2021,10,24,00,14,995.80
2021,10,24,00,15,995.53
2021,10,24,00,16,995.53
2021,10,24,00,17,995.53
2021,10,24,00,18,995.53
2021,10,24,00,19,995.53
2021,10,24,00,20,995.53
2021,10,24,00,21,995.53
2021,10,24,00,22,995.53
2021,10,24,00,23,995.53
2021,10,24,00,24,995.53
2021,10,24,00,25,995.53
2021,10,24,00,26,995.53
2021,10,24,00,27,995.53
2021,10,24,00,28,995.53
2021,10,24,00,29,995.53
2021,10,24,00,30,995.09
2021,10,24,00,31,995.09
2021,10,24,00,32,995.09
2021,10,24,00,33,995.09
2021,10,24,00,34,995.09
2021,10,24,00,35,995.09
2021,10,24,00,36,995.09
2021,10,24,00,37,995.09
2021,10,24,00,38,995.09
2021,10,24,00,39,995.09
2021,10,24,00,40,995.09
2021,10,24,00,41,995.09
2021,10,24,00,42,995.09
2021,10,24,00,43,995.09
2021,10,24,00,44,995.09
2021,10,24,00,45,994.67
2021,10,24,00,46,994.65
2021,10,24,00,47,994.65
2021,10,24,00,48,994.65
2021,10,24,00,49,994.65
2021,10,24,00,50,994.65
2021,10,24,00,51,994.65
2021,10,24,00,52,994.65
2021,10,24,00,53,994.65
2021,10,24,00,54,994.65
2021,10,24,00,55,994.65
2021,10,24,00,56,994.65
2021,10,24,00,57,994.65
2021,10,24,00,58,994.65
2021,10,24,00,59,994.65
2021,10,24,01,00,994.55
2021,10,24,01,01,994.55
2021,10,24,01,02,994.55
2021,10,24,01,03,994.55
2021,10,24,01,04,994.55
2021,10,24,01,05,994.55
2021,10,24,01,06,994.55
2021,10,24,01,07,994.55
2021,10,24,01,08,994.55
2021,10,24,01,09,994.55
2021,10,24,01,10,994.55
2021,10,24,01,11,994.55
2021,10,24,01,12,994.55
2021,10,24,01,13,994.55
2021,10,24,01,14,994.55
2021,10,24,01,15,994.35
2021,10,24,01,16,994.35
2021,10,24,01,17,994.35
2021,10,24,01,18,994.35
2021,10,24,01,19,994.35
2021,10,24,01,20,994.35
2021,10,24,01,21,994.35
2021,10,24,01,22,994.35
2021,10,24,01,23,994.35
2021,10,24,01,24,994.35
2021,10,24,01,25,994.35
2021,10,24,01,26,994.35
2021,10,24,01,27,994.35
2021,10,24,01,28,994.35
2021,10,24,01,29,994.35
2021,10,24,01,30,994.11
2021,10,24,01,31,994.11
2021,10,24,01,32,994.11
2021,10,24,01,33,994.11
2021,10,24,01,34,994.11
2021,10,24,01,35,994.11
2021,10,24,01,36,994.11
2021,10,24,01,37,994.11
2021,10,24,01,38,994.11
2021,10,24,01,39,994.11
2021,10,24,01,40,994.11
2021,10,24,01,41,994.11
2021,10,24,01,42,994.11
2021,10,24,01,43,994.11
2021,10,24,01,44,994.11
2021,10,24,01,45,993.97
2021,10,24,01,46,993.97
2021,10,24,01,47,993.97
2021,10,24,01,48,993.97
2021,10,24,01,49,993.97
2021,10,24,01,50,993.97
2021,10,24,01,51,993.97
2021,10,24,01,52,993.97
2021,10,24,01,53,993.97
2021,10,24,01,54,993.97
2021,10,24,01,55,993.97
2021,10,24,01,56,993.97
2021,10,24,01,57,993.97
2021,10,24,01,58,993.97
2021,10,24,01,59,993.97
2021,10,24,02,00,993.50
2021,10,24,02,01,993.50
2021,10,24,02,02,993.50
2021,10,24,02,03,993.50
2021,10,24,02,04,993.50
2021,10,24,02,05,993.50
2021,10,24,02,06,993.50
2021,10,24,02,07,993.50
2021,10,24,02,08,993.50
2021,10,24,02,09,993.50
2021,10,24,02,10,993.50
2021,10,24,02,11,993.50
2021,10,24,02,12,993.50
2021,10,24,02,13,993.50
2021,10,24,02,14,993.50
2021,10,24,02,15,993.30
2021,10,24,02,16,993.30
2021,10,24,02,17,993.30
2021,10,24,02,18,993.30
2021,10,24,02,19,993.30
2021,10,24,02,20,993.30
2021,10,24,02,21,993.30
2021,10,24,02,22,993.30
2021,10,24,02,23,993.30
2021,10,24,02,24,993.30
2021,10,24,02,25,993.30
2021,10,24,02,26,993.30
2021,10,24,02,27,993.30
2021,10,24,02,28,993.30
2021,10,24,02,29,993.30
2021,10,24,02,30,992.99
2021,10,24,02,31,992.99
2021,10,24,02,32,992.99
2021,10,24,02,33,992.99
2021,10,24,02,34,992.99
2021,10,24,02,35,992.99
2021,10,24,02,36,992.99
2021,10,24,02,37,992.99
2021,10,24,02,38,992.99
2021,10,24,02,39,992.99
2021,10,24,02,40,992.99
2021,10,24,02,41,992.99
2021,10,24,02,42,992.99
2021,10,24,02,43,992.99
2021,10,24,02,44,992.99
2021,10,24,02,45,992.52
2021,10,24,02,46,992.52
2021,10,24,02,47,992.52
2021,10,24,02,48,992.52
2021,10,24,02,49,992.52
2021,10,24,02,50,992.52
2021,10,24,02,51,992.52
2021,10,24,02,52,992.52
2021,10,24,02,53,992.52
2021,10,24,02,54,992.52
2021,10,24,02,55,992.52
2021,10,24,02,56,992.52
2021,10,24,02,57,992.52
2021,10,24,02,58,992.52
2021,10,24,02,59,992.52
2021,10,24,03,00,992.13
2021,10,24,03,01,992.11
2021,10,24,03,02,992.11
2021,10,24,03,03,992.11
2021,10,24,03,04,992.11
2021,10,24,03,05,992.11
2021,10,24,03,06,992.11
2021,10,24,03,07,992.11
2021,10,24,03,08,992.11
2021,10,24,03,09,992.11
2021,10,24,03,10,992.11
2021,10,24,03,11,992.11
2021,10,24,03,12,992.11
2021,10,24,03,13,992.11
2021,10,24,03,14,992.11
2021,10,24,03,15,991.77
2021,10,24,03,16,991.77
2021,10,24,03,17,991.77
2021,10,24,03,18,991.77
2021,10,24,03,19,991.77
2021,10,24,03,20,991.77
2021,10,24,03,21,991.77
2021,10,24,03,22,991.77
2021,10,24,03,23,991.77
2021,10,24,03,24,991.77
2021,10,24,03,25,991.77
2021,10,24,03,26,991.77
2021,10,24,03,27,991.77
2021,10,24,03,28,991.77
2021,10,24,03,29,991.77
2021,10,24,03,30,991.12
2021,10,24,03,31,991.09
2021,10,24,03,32,991.09
2021,10,24,03,33,991.09
2021,10,24,03,34,991.09
2021,10,24,03,35,991.09
2021,10,24,03,36,991.09
2021,10,24,03,37,991.09
2021,10,24,03,38,991.09
2021,10,24,03,39,991.09
2021,10,24,03,40,991.09
2021,10,24,03,41,991.09
2021,10,24,03,42,991.09
2021,10,24,03,43,991.09
2021,10,24,03,44,991.09
2021,10,24,03,45,990.79
2021,10,24,03,46,990.79
2021,10,24,03,47,990.79
2021,10,24,03,48,990.79
2021,10,24,03,49,990.79
2021,10,24,03,50,990.79
2021,10,24,03,51,990.79
2021,10,24,03,52,990.79
2021,10,24,03,53,990.79
2021,10,24,03,54,990.79
2021,10,24,03,55,990.79
2021,10,24,03,56,990.79
2021,10,24,03,57,990.79
2021,10,24,03,58,990.79
2021,10,24,03,59,990.79
2021,10,24,04,00,990.32
2021,10,24,04,01,990.32
2021,10,24,04,02,990.32
2021,10,24,04,03,990.32
2021,10,24,04,04,990.32
2021,10,24,04,05,990.32
2021,10,24,04,06,990.32
2021,10,24,04,07,990.32
2021,10,24,04,08,990.32
2021,10,24,04,09,990.32
2021,10,24,04,10,990.32
2021,10,24,04,11,990.32
2021,10,24,04,12,990.32
2021,10,24,04,13,990.32
2021,10,24,04,14,990.32
2021,10,24,04,15,989.91
2021,10,24,04,16,989.91
2021,10,24,04,17,989.91
2021,10,24,04,18,989.91
2021,10,24,04,19,989.91
2021,10,24,04,20,989.91
2021,10,24,04,21,989.91
2021,10,24,04,22,989.91
2021,10,24,04,23,989.91
2021,10,24,04,24,989.91
2021,10,24,04,25,989.91
2021,10,24,04,26,989.91
2021,10,24,04,27,989.91
2021,10,24,04,28,989.91
2021,10,24,04,29,989.91
2021,10,24,04,30,989.33
2021,10,24,04,31,989.33
2021,10,24,04,32,989.33
2021,10,24,04,33,989.33
2021,10,24,04,34,989.33
2021,10,24,04,35,989.33
2021,10,24,04,36,989.33
2021,10,24,04,37,989.33
2021,10,24,04,38,989.33
2021,10,24,04,39,989.33
2021,10,24,04,40,989.33
2021,10,24,04,41,989.33
2021,10,24,04,42,989.33
2021,10,24,04,43,989.33
2021,10,24,04,44,989.33
2021,10,24,04,45,988.59
2021,10,24,04,46,988.59
2021,10,24,04,47,988.59
2021,10,24,04,48,988.59
2021,10,24,04,49,988.59
2021,10,24,04,50,988.59
2021,10,24,04,51,988.59
2021,10,24,04,52,988.59
2021,10,24,04,53,988.59
2021,10,24,04,54,988.59
2021,10,24,04,55,988.59
2021,10,24,04,56,988.59
2021,10,24,04,57,988.59
2021,10,24,04,58,988.59
2021,10,24,04,59,988.59
2021,10,24,05,00,988.76
2021,10,24,05,01,988.76
2021,10,24,05,02,988.76
2021,10,24,05,03,988.76
2021,10,24,05,04,988.76
2021,10,24,05,05,988.76
2021,10,24,05,06,988.76
2021,10,24,05,07,988.76
2021,10,24,05,08,988.76
2021,10,24,05,09,988.76
2021,10,24,05,10,988.76
2021,10,24,05,11,988.76
2021,10,24,05,12,988.76
2021,10,24,05,13,988.76
2021,10,24,05,14,988.76
2021,10,24,05,15,988.28
2021,10,24,05,16,988.28
2021,10,24,05,17,988.28
2021,10,24,05,18,988.28
2021,10,24,05,19,988.28
2021,10,24,05,20,988.28
2021,10,24,05,21,988.28
2021,10,24,05,22,988.28
2021,10,24,05,23,988.28
2021,10,24,05,24,988.28
2021,10,24,05,25,988.28
2021,10,24,05,26,988.28
2021,10,24,05,27,988.28
2021,10,24,05,28,988.28
2021,10,24,05,29,988.28
2021,10,24,05,30,987.64
2021,10,24,05,31,987.64
2021,10,24,05,32,987.64
2021,10,24,05,33,987.64
2021,10,24,05,34,987.64
2021,10,24,05,35,987.64
2021,10,24,05,36,987.64
2021,10,24,05,37,987.64
2021,10,24,05,38,987.64
2021,10,24,05,39,987.64
2021,10,24,05,40,987.64
2021,10,24,05,41,987.64
2021,10,24,05,42,987.64
2021,10,24,05,43,987.64
2021,10,24,05,44,987.64
2021,10,24,05,45,987.10
2021,10,24,05,46,987.10
2021,10,24,05,47,987.10
2021,10,24,05,48,987.10
2021,10,24,05,49,987.10
2021,10,24,05,50,987.10
2021,10,24,05,51,987.10
2021,10,24,05,52,987.10
2021,10,24,05,53,987.10
2021,10,24,05,54,987.10
2021,10,24,05,55,987.10
2021,10,24,05,56,987.10
2021,10,24,05,57,987.10
2021,10,24,05,58,987.10
2021,10,24,05,59,987.10
2021,10,24,06,00,986.33
2021,10,24,06,01,986.29
2021,10,24,06,02,986.29
2021,10,24,06,03,986.29
2021,10,24,06,04,986.29
2021,10,24,06,05,986.29
2021,10,24,06,06,986.29
2021,10,24,06,07,986.29
2021,10,24,06,08,986.29
2021,10,24,06,09,986.29
2021,10,24,06,10,986.29
2021,10,24,06,11,986.29
2021,10,24,06,12,986.29
2021,10,24,06,13,986.29
2021,10,24,06,14,986.29
2021,10,24,06,15,985.45
2021,10,24,06,16,985.41
2021,10,24,06,17,985.41
2021,10,24,06,18,985.41
2021,10,24,06,19,985.41
2021,10,24,06,20,985.41
2021,10,24,06,21,985.41
2021,10,24,06,22,985.41
2021,10,24,06,23,985.41
2021,10,24,06,24,985.41
2021,10,24,06,25,985.41
2021,10,24,06,26,985.41
2021,10,24,06,27,985.41
2021,10,24,06,28,985.41
2021,10,24,06,29,985.41
2021,10,24,06,30,984.66
2021,10,24,06,31,984.66
2021,10,24,06,32,984.66
2021,10,24,06,33,984.66
2021,10,24,06,34,984.66
2021,10,24,06,35,984.66
2021,10,24,06,36,984.66
2021,10,24,06,37,984.66
2021,10,24,06,38,984.66
2021,10,24,06,39,984.66
2021,10,24,06,40,984.66
2021,10,24,06,41,984.66
2021,10,24,06,42,984.66
2021,10,24,06,43,984.66
2021,10,24,06,44,984.66
2021,10,24,06,45,984.56
2021,10,24,06,46,984.56
2021,10,24,06,47,984.56
2021,10,24,06,48,984.56
2021,10,24,06,49,984.56
2021,10,24,06,50,984.56
2021,10,24,06,51,984.56
2021,10,24,06,52,984.56
2021,10,24,06,53,984.56
2021,10,24,06,54,984.56
2021,10,24,06,55,984.56
2021,10,24,06,56,984.56
2021,10,24,06,57,984.56
2021,10,24,06,58,984.56
2021,10,24,06,59,984.56
2021,10,24,07,00,984.05
2021,10,24,07,01,984.05
2021,10,24,07,02,984.05
2021,10,24,07,03,984.05
2021,10,24,07,04,984.05
2021,10,24,07,05,984.05
2021,10,24,07,06,984.05
2021,10,24,07,07,984.05
2021,10,24,07,08,984.05
2021,10,24,07,09,984.05
2021,10,24,07,10,984.05
2021,10,24,07,11,984.05
2021,10,24,07,12,984.05
2021,10,24,07,13,984.05
2021,10,24,07,14,984.05
2021,10,24,07,15,983.64
2021,10,24,07,16,983.64
2021,10,24,07,17,983.64
2021,10,24,07,18,983.64
2021,10,24,07,19,983.64
2021,10,24,07,20,983.64
2021,10,24,07,21,983.64
2021,10,24,07,22,983.64
2021,10,24,07,23,983.64
2021,10,24,07,24,983.64
2021,10,24,07,25,983.64
2021,10,24,07,26,983.64
2021,10,24,07,27,983.64
2021,10,24,07,28,983.64
2021,10,24,07,29,983.64
2021,10,24,07,30,983.34
2021,10,24,07,31,983.34
2021,10,24,07,32,983.34
2021,10,24,07,33,983.34
2021,10,24,07,34,983.34
2021,10,24,07,35,983.34
2021,10,24,07,36,983.34
2021,10,24,07,37,983.34
2021,10,24,07,38,983.34
2021,10,24,07,39,983.34
2021,10,24,07,40,983.34
2021,10,24,07,41,983.34
2021,10,24,07,42,983.34
2021,10,24,07,43,983.34
2021,10,24,07,44,983.34
2021,10,24,07,45,982.76
2021,10,24,07,46,982.73
2021,10,24,07,47,982.73
2021,10,24,07,48,982.73
2021,10,24,07,49,982.73
2021,10,24,07,50,982.73
2021,10,24,07,51,982.73
2021,10,24,07,52,982.73
2021,10,24,07,53,982.73
2021,10,24,07,54,982.73
2021,10,24,07,55,982.73
2021,10,24,07,56,982.73
2021,10,24,07,57,982.73
2021,10,24,07,58,982.73
2021,10,24,07,59,982.73
2021,10,24,08,00,982.47
2021,10,24,08,01,982.46
2021,10,24,08,02,982.46
2021,10,24,08,03,982.46
2021,10,24,08,04,982.46
2021,10,24,08,05,982.46
2021,10,24,08,06,982.46
2021,10,24,08,07,982.46
2021,10,24,08,08,982.46
2021,10,24,08,09,982.46
2021,10,24,08,10,982.46
2021,10,24,08,11,982.46
2021,10,24,08,12,982.46
2021,10,24,08,13,982.46
2021,10,24,08,14,982.46
2021,10,24,08,15,982.11
2021,10,24,08,16,982.09
2021,10,24,08,17,982.09
2021,10,24,08,18,982.09
2021,10,24,08,19,982.09
2021,10,24,08,20,982.09
2021,10,24,08,21,982.09
2021,10,24,08,22,982.09
2021,10,24,08,23,982.09
2021,10,24,08,24,982.09
2021,10,24,08,25,982.09
2021,10,24,08,26,982.09
2021,10,24,08,27,982.09
2021,10,24,08,28,982.09
2021,10,24,08,29,982.09
2021,10,24,08,30,981.93
2021,10,24,08,31,981.92
2021,10,24,08,32,981.92
2021,10,24,08,33,981.92
2021,10,24,08,34,981.92
2021,10,24,08,35,981.92
2021,10,24,08,36,981.92
2021,10,24,08,37,981.92
2021,10,24,08,38,981.92
2021,10,24,08,39,981.92
2021,10,24,08,40,981.92
2021,10,24,08,41,981.92
2021,10,24,08,42,981.92
2021,10,24,08,43,981.92
2021,10,24,08,44,981.92
2021,10,24,08,45,981.85
2021,10,24,08,46,981.85
2021,10,24,08,47,981.85
2021,10,24,08,48,981.85
2021,10,24,08,49,981.85
2021,10,24,08,50,981.85
2021,10,24,08,51,981.85
2021,10,24,08,52,981.85
2021,10,24,08,53,981.85
2021,10,24,08,54,981.85
2021,10,24,08,55,981.85
2021,10,24,08,56,981.85
2021,10,24,08,57,981.85
2021,10,24,08,58,981.85
2021,10,24,08,59,981.85
2021,10,24,09,00,981.46
2021,10,24,09,01,981.44
2021,10,24,09,02,981.44
2021,10,24,09,03,981.44
2021,10,24,09,04,981.44
2021,10,24,09,05,981.44
2021,10,24,09,06,981.44
2021,10,24,09,07,981.44
2021,10,24,09,08,981.44
2021,10,24,09,09,981.44
2021,10,24,09,10,981.44
2021,10,24,09,11,981.44
2021,10,24,09,12,981.44
2021,10,24,09,13,981.44
2021,10,24,09,14,981.44
2021,10,24,09,15,981.48
2021,10,24,09,16,981.48
2021,10,24,09,17,981.48
2021,10,24,09,18,981.48
2021,10,24,09,19,981.48
2021,10,24,09,20,981.48
2021,10,24,09,21,981.48
2021,10,24,09,22,981.48
2021,10,24,09,23,981.48
2021,10,24,09,24,981.48
2021,10,24,09,25,981.48
2021,10,24,09,26,981.48
2021,10,24,09,27,981.48
2021,10,24,09,28,981.48
2021,10,24,09,29,981.48
2021,10,24,09,30,981.44
2021,10,24,09,31,981.44
2021,10,24,09,32,981.44
2021,10,24,09,33,981.44
2021,10,24,09,34,981.44
2021,10,24,09,35,981.44
2021,10,24,09,36,981.44
2021,10,24,09,37,981.44
2021,10,24,09,38,981.44
2021,10,24,09,39,981.44
2021,10,24,09,40,981.44
2021,10,24,09,41,981.44
2021,10,24,09,42,981.44
2021,10,24,09,43,981.44
2021,10,24,09,44,981.44
2021,10,24,09,45,981.38
2021,10,24,09,46,981.38
2021,10,24,09,47,981.38
2021,10,24,09,48,981.38
2021,10,24,09,49,981.38
2021,10,24,09,50,981.38
2021,10,24,09,51,981.38
2021,10,24,09,52,981.38
2021,10,24,09,53,981.38
2021,10,24,09,54,981.38
2021,10,24,09,55,981.38
2021,10,24,09,56,981.38
2021,10,24,09,57,981.38
2021,10,24,09,58,981.38
2021,10,24,09,59,981.38
2021,10,24,10,00,980.31
2021,10,24,10,01,980.26
2021,10,24,10,02,980.26
2021,10,24,10,03,980.26
2021,10,24,10,04,980.26
2021,10,24,10,05,980.26
2021,10,24,10,06,980.26
2021,10,24,10,07,980.26
2021,10,24,10,08,980.26
2021,10,24,10,09,980.26
2021,10,24,10,10,980.26
2021,10,24,10,11,980.26
2021,10,24,10,12,980.26
2021,10,24,10,13,980.26
2021,10,24,10,14,980.26
2021,10,24,10,15,979.80
2021,10,24,10,16,979.78
2021,10,24,10,17,979.78
2021,10,24,10,18,979.78
2021,10,24,10,19,979.78
2021,10,24,10,20,979.78
2021,10,24,10,21,979.78
2021,10,24,10,22,979.78
2021,10,24,10,23,979.78
2021,10,24,10,24,979.78
2021,10,24,10,25,979.78
2021,10,24,10,26,979.78
2021,10,24,10,27,979.78
2021,10,24,10,28,979.78
2021,10,24,10,29,979.78
2021,10,24,10,30,979.85
2021,10,24,10,31,979.85
2021,10,24,10,32,979.85
2021,10,24,10,33,979.85
2021,10,24,10,34,979.85
2021,10,24,10,35,979.85
2021,10,24,10,36,979.85
2021,10,24,10,37,979.85
2021,10,24,10,38,979.85
2021,10,24,10,39,979.85
2021,10,24,10,40,979.85
2021,10,24,10,41,979.85
2021,10,24,10,42,979.85
2021,10,24,10,43,979.85
2021,10,24,10,44,979.85
2021,10,24,10,45,979.40
2021,10,24,10,46,979.38
2021,10,24,10,47,979.38
2021,10,24,10,48,979.38
2021,10,24,10,49,979.38
2021,10,24,10,50,979.38
2021,10,24,10,51,979.38
2021,10,24,10,52,979.38
2021,10,24,10,53,979.38
2021,10,24,10,54,979.38
2021,10,24,10,55,979.38
2021,10,24,10,56,979.38
2021,10,24,10,57,979.38
2021,10,24,10,58,979.38
2021,10,24,10,59,979.38
2021,10,24,11,00,979.73
2021,10,24,11,01,979.75
2021,10,24,11,02,979.75
2021,10,24,11,03,979.75
2021,10,24,11,04,979.75
2021,10,24,11,05,979.75
2021,10,24,11,06,979.75
2021,10,24,11,07,979.75
2021,10,24,11,08,979.75
2021,10,24,11,09,979.75
2021,10,24,11,10,979.75
2021,10,24,11,11,979.75
2021,10,24,11,12,979.75
2021,10,24,11,13,979.75
2021,10,24,11,14,979.75
2021,10,24,11,15,979.30
2021,10,24,11,16,979.28
2021,10,24,11,17,979.28
2021,10,24,11,18,979.28
2021,10,24,11,19,979.28
2021,10,24,11,20,979.28
2021,10,24,11,21,979.28
2021,10,24,11,22,979.28
2021,10,24,11,23,979.28
2021,10,24,11,24,979.28
2021,10,24,11,25,979.28
2021,10,24,11,26,979.28
2021,10,24,11,27,979.28
2021,10,24,11,28,979.28
2021,10,24,11,29,979.28
2021,10,24,11,30,978.96
2021,10,24,11,31,978.94
2021,10,24,11,32,978.94
2021,10,24,11,33,978.94
2021,10,24,11,34,978.94
2021,10,24,11,35,978.94
2021,10,24,11,36,978.94
2021,10,24,11,37,978.94
2021,10,24,11,38,978.94
2021,10,24,11,39,978.94
2021,10,24,11,40,978.94
2021,10,24,11,41,978.94
2021,10,24,11,42,978.94
2021,10,24,11,43,978.94
2021,10,24,11,44,978.94
2021,10,24,11,45,978.97
2021,10,24,11,46,978.97
2021,10,24,11,47,978.97
2021,10,24,11,48,978.97
2021,10,24,11,49,978.97
2021,10,24,11,50,978.97
2021,10,24,11,51,978.97
2021,10,24,11,52,978.97
2021,10,24,11,53,978.97
2021,10,24,11,54,978.97
2021,10,24,11,55,978.97
2021,10,24,11,56,978.97
2021,10,24,11,57,978.97
2021,10,24,11,58,978.97
2021,10,24,11,59,978.97
2021,10,24,12,00,978.97
2021,10,24,12,01,978.97
2021,10,24,12,02,978.97
2021,10,24,12,03,978.97
2021,10,24,12,04,978.97
2021,10,24,12,05,978.97
2021,10,24,12,06,978.97
2021,10,24,12,07,978.97
2021,10,24,12,08,978.97
2021,10,24,12,09,978.97
2021,10,24,12,10,978.97
2021,10,24,12,11,978.97
2021,10,24,12,12,978.97
2021,10,24,12,13,978.97
2021,10,24,12,14,978.97
2021,10,24,12,15,978.65
2021,10,24,12,16,978.63
2021,10,24,12,17,978.63
2021,10,24,12,18,978.63
2021,10,24,12,19,978.63
2021,10,24,12,20,978.63
2021,10,24,12,21,978.63
2021,10,24,12,22,978.63
2021,10,24,12,23,978.63
2021,10,24,12,24,978.63
2021,10,24,12,25,978.63
2021,10,24,12,26,978.63
2021,10,24,12,27,978.63
2021,10,24,12,28,978.63
2021,10,24,12,29,978.63
2021,10,24,12,30,978.53
2021,10,24,12,31,978.53
2021,10,24,12,32,978.53
2021,10,24,12,33,978.53
2021,10,24,12,34,978.53
2021,10,24,12,35,978.53
2021,10,24,12,36,978.53
2021,10,24,12,37,978.53
2021,10,24,12,38,978.53
2021,10,24,12,39,978.53
2021,10,24,12,40,978.53
2021,10,24,12,41,978.53
2021,10,24,12,42,978.53
2021,10,24,12,43,978.53
2021,10,24,12,44,978.53
2021,10,24,12,45,978.83
2021,10,24,12,46,978.84
2021,10,24,12,47,978.84
2021,10,24,12,48,978.84
2021,10,24,12,49,978.84
2021,10,24,12,50,978.84
2021,10,24,12,51,978.84
2021,10,24,12,52,978.84
2021,10,24,12,53,978.84
2021,10,24,12,54,978.84
2021,10,24,12,55,978.84
2021,10,24,12,56,978.84
2021,10,24,12,57,978.84
2021,10,24,12,58,978.84
2021,10,24,12,59,978.84
2021,10,24,13,00,979.26
2021,10,24,13,01,979.28
2021,10,24,13,02,979.28
2021,10,24,13,03,979.28
2021,10,24,13,04,979.28
2021,10,24,13,05,979.28
2021,10,24,13,06,979.28
2021,10,24,13,07,979.28
2021,10,24,13,08,979.28
2021,10,24,13,09,979.28
2021,10,24,13,10,979.28
2021,10,24,13,11,979.28
2021,10,24,13,12,979.28
2021,10,24,13,13,979.28
2021,10,24,13,14,979.28
2021,10,24,13,15,979.34
2021,10,24,13,16,979.34
2021,10,24,13,17,979.34
2021,10,24,13,18,979.34
2021,10,24,13,19,979.34
2021,10,24,13,20,979.34
2021,10,24,13,21,979.34
2021,10,24,13,22,979.34
2021,10,24,13,23,979.34
2021,10,24,13,24,979.34
2021,10,24,13,25,979.34
2021,10,24,13,26,979.34
2021,10,24,13,27,979.34
2021,10,24,13,28,979.34
2021,10,24,13,29,979.34
2021,10,24,13,30,979.03
2021,10,24,13,31,979.01
2021,10,24,13,32,979.01
2021,10,24,13,33,979.01
2021,10,24,13,34,979.01
2021,10,24,13,35,979.01
2021,10,24,13,36,979.01
2021,10,24,13,37,979.01
2021,10,24,13,38,979.01
2021,10,24,13,39,979.01
2021,10,24,13,40,979.01
2021,10,24,13,41,979.01
2021,10,24,13,42,979.01
2021,10,24,13,43,979.01
2021,10,24,13,44,979.01
2021,10,24,13,45,978.73
2021,10,24,13,46,978.70
2021,10,24,13,47,978.70
2021,10,24,13,48,978.70
2021,10,24,13,49,978.70
2021,10,24,13,50,978.70
2021,10,24,13,51,978.70
2021,10,24,13,52,978.70
2021,10,24,13,53,978.70
2021,10,24,13,54,978.70
2021,10,24,13,55,978.70
2021,10,24,13,56,978.70
2021,10,24,13,57,978.70
2021,10,24,13,58,978.70
2021,10,24,13,59,978.70
2021,10,24,14,00,980.55
2021,10,24,14,01,980.73
2021,10,24,14,02,980.73
2021,10,24,14,03,980.73
2021,10,24,14,04,980.73
2021,10,24,14,05,980.73
2021,10,24,14,06,980.73
2021,10,24,14,07,980.73
2021,10,24,14,08,980.73
2021,10,24,14,09,980.73
2021,10,24,14,10,980.73
2021,10,24,14,11,980.73
2021,10,24,14,12,980.73
2021,10,24,14,13,980.73
2021,10,24,14,14,980.73
2021,10,24,14,15,980.09
2021,10,24,14,16,980.06
2021,10,24,14,17,980.06
2021,10,24,14,18,980.06
2021,10,24,14,19,980.06
2021,10,24,14,20,980.06
2021,10,24,14,21,980.06
2021,10,24,14,22,980.06
2021,10,24,14,23,980.06
2021,10,24,14,24,980.06
2021,10,24,14,25,980.06
2021,10,24,14,26,980.06
2021,10,24,14,27,980.06
2021,10,24,14,28,980.06
2021,10,24,14,29,980.06
2021,10,24,14,30,979.90
2021,10,24,14,31,979.89
2021,10,24,14,32,979.89
2021,10,24,14,33,979.89
2021,10,24,14,34,979.89
2021,10,24,14,35,979.89
2021,10,24,14,36,979.89
2021,10,24,14,37,979.89
2021,10,24,14,38,979.89
2021,10,24,14,39,979.89
2021,10,24,14,40,979.89
2021,10,24,14,41,979.89
2021,10,24,14,42,979.89
2021,10,24,14,43,979.89
2021,10,24,14,44,979.89
2021,10,24,14,45,979.69
2021,10,24,14,46,979.68
2021,10,24,14,47,979.68
2021,10,24,14,48,979.68
2021,10,24,14,49,979.68
2021,10,24,14,50,979.68
2021,10,24,14,51,979.68
2021,10,24,14,52,979.68
2021,10,24,14,53,979.68
2021,10,24,14,54,979.68
2021,10,24,14,55,979.68
2021,10,24,14,56,979.68
2021,10,24,14,57,979.68
2021,10,24,14,58,979.68
2021,10,24,14,59,979.68
2021,10,24,15,00,979.84
2021,10,24,15,01,979.85
2021,10,24,15,02,979.85
2021,10,24,15,03,979.85
2021,10,24,15,04,979.85
2021,10,24,15,05,979.85
2021,10,24,15,06,979.85
2021,10,24,15,07,979.85
2021,10,24,15,08,979.85
2021,10,24,15,09,979.85
2021,10,24,15,10,979.85
2021,10,24,15,11,979.85
2021,10,24,15,12,979.85
2021,10,24,15,13,979.85
2021,10,24,15,14,979.85
2021,10,24,15,15,980.20
2021,10,24,15,16,980.22
2021,10,24,15,17,980.22
2021,10,24,15,18,980.22
2021,10,24,15,19,980.22
2021,10,24,15,20,980.22
2021,10,24,15,21,980.22
2021,10,24,15,22,980.22
2021,10,24,15,23,980.22
2021,10,24,15,24,980.22
2021,10,24,15,25,980.22
2021,10,24,15,26,980.22
2021,10,24,15,27,980.22
2021,10,24,15,28,980.22
2021,10,24,15,29,980.22
2021,10,24,15,30,980.83
2021,10,24,15,31,980.83
2021,10,24,15,32,980.83
2021,10,24,15,33,980.83
2021,10,24,15,34,980.83
2021,10,24,15,35,980.83
2021,10,24,15,36,980.83
2021,10,24,15,37,980.83
2021,10,24,15,38,980.83
2021,10,24,15,39,980.83
2021,10,24,15,40,980.83
2021,10,24,15,41,980.83
2021,10,24,15,42,980.83
2021,10,24,15,43,980.83
2021,10,24,15,44,980.83
2021,10,24,15,45,980.87
2021,10,24,15,46,980.87
2021,10,24,15,47,980.87
2021,10,24,15,48,980.87
2021,10,24,15,49,980.87
2021,10,24,15,50,980.87
2021,10,24,15,51,980.87
2021,10,24,15,52,980.87
2021,10,24,15,53,980.87
2021,10,24,15,54,980.87
2021,10,24,15,55,980.87
2021,10,24,15,56,980.87
2021,10,24,15,57,980.87
2021,10,24,15,58,980.87
2021,10,24,15,59,980.87
2021,10,24,16,00,980.74
2021,10,24,16,01,980.73
2021,10,24,16,02,980.73
2021,10,24,16,03,980.73
2021,10,24,16,04,980.73
2021,10,24,16,05,980.73
2021,10,24,16,06,980.73
2021,10,24,16,07,980.73
2021,10,24,16,08,980.73
2021,10,24,16,09,980.73
2021,10,24,16,10,980.73
2021,10,24,16,11,980.73
2021,10,24,16,12,980.73
2021,10,24,16,13,980.73
2021,10,24,16,14,980.73
2021,10,24,16,15,980.89
2021,10,24,16,16,980.90
2021,10,24,16,17,980.90
2021,10,24,16,18,980.90
2021,10,24,16,19,980.90
2021,10,24,16,20,980.90
2021,10,24,16,21,980.90
2021,10,24,16,22,980.90
2021,10,24,16,23,980.90
2021,10,24,16,24,980.90
2021,10,24,16,25,980.90
2021,10,24,16,26,980.90
2021,10,24,16,27,980.90
2021,10,24,16,28,980.90
2021,10,24,16,29,980.90
2021,10,24,16,30,980.72
2021,10,24,16,31,980.70
2021,10,24,16,32,980.70
2021,10,24,16,33,980.70
2021,10,24,16,34,980.70
2021,10,24,16,35,980.70
2021,10,24,16,36,980.70